User: anonymous   Login
Location: Unspecified
(0.0000°N, 0.0000°E)
Time: 00:47:02
(UTC+00:00)
Language:

RESURS DK-1 - Orbit

View from above orbital plane
View from above orbital plane
View from above satellite
View from above satellite

Ground track
Ground track

The orbit data is extracted from the following two-line orbital elements,

1 29228U 06021A   17058.89874587  .00000280  00000-0  28674-4 0  9990
2 29228  69.9366  16.1178 0004172 191.3035 168.8033 15.02098583591694
Epoch (UTC): 27 February 2017 21:34:11
Eccentricity: 0.0004172
inclination: 69.9366°
perigee height: 557 km
apogee height: 563 km
right ascension of ascending node: 16.1178°
argument of perigee: 191.3035°
revolutions per day: 15.02098583
mean anomaly at epoch: 168.8033°
orbit number at epoch: 59169

The dashed part of the orbit path shows where the satellite is in the earth's shadow,  

DLR